Location: Waco, TX
(31.5480°N, 97.1670°W)
Time: 00:33:22
(UTC-06:00)

ISS - Pass Details

Date: 10 December 2017
Orbit: 403 x 407 km, 51.6° (Epoch: 12 December)

Event Time Altitude Azimuth Distance (km) Brightness Sun altitude
Rises 13:17:39 0° 238° (WSW) 2,313 0.6 33.9°
Reaches altitude 10° 13:19:47 10° 245° (WSW) 1,457 -0.4 33.7°
Maximum altitude 13:22:55 42° 318° (NW) 590 -2.9 33.5°
Drops below altitude 10° 13:26:03 10° 31° (NNE) 1,464 -1.4 33.3°
Sets 13:28:13 0° 39° (NE) 2,326 -0.5 33.2°
